Regional Weather Roundup
Issued by NWS

Home | Current Version | Previous Version | Graphics & Text | Print | Product List | Glossary On
Versions: 1 2 3 4 5 6 7 8 9 10 11 12 13 14 15 16 17 18 19 20 21 22 23 24 25 26 27 28 29 30 31 32 33 34 35 36 37 38 39 40 41 42 43 44 45 46 47 48 49 50
000
ASUS43 KIND 180909
RWRIN

WEATHER ROUNDUP FOR INDIANA
NATIONAL WEATHER SERVICE INDIANAPOLIS IN
500 AM EDT SAT APR 18 2015

NOTE: "FAIR" INDICATES FEW OR NO CLOUDS BELOW 12,000 FEET WITH NO
SIGNIFICANT WEATHER AND/OR OBSTRUCTIONS TO VISIBILITY.

* - STATION DOES NOT REPORT WEATHER SUCH AS PRECIPITATION OR FOG.

+ - STATION NOT QUALITY CONTROLLED BY THE NATIONAL WEATHER SERVICE.
    USE DATA WITH CAUTION...ESPECIALLY DEWPOINT AND RELATIVE
    HUMIDITY OBSERVATIONS.

INZ001>003-010>013-019-020-181000-
NORTHWEST INDIANA

CITY           SKY/WX    TMP DP  RH WIND       PRES   REMARKS
GARY /AIRPORT/ PTCLDY    62  43  49 SW3       30.03R
KNOX *+        PTCLDY    54  32  43 SW5       30.03R
MICHIGAN CITY+ PTCLDY    55  41  58 CALM      30.03R
MONTICELLO +   CLEAR     51  49  95 CALM      30.03S
RENSSELAER +   CLEAR     55  46  71 CALM      30.04S
VALPARAISO     PTCLDY    55  45  68 SW5       30.03S

$$

LMZ046-743>745-181000-
SOUTHERN LAKE MICHIGAN

STATION/POSITION TIME  TEMP WIND        PRES
                       AIR  DIR/SP/G
                 (UTC) (F)  (DEG/KT/KT) (MB)
BURNS HARBOR     0900   62  200/  7/  9 1016.9S
MICHIGAN CITY    0900   64  190/  8/  9   N/A
4NW MICH CITY    0900   53                N/A

$$

INZ004-005-014>016-021>024-181000-
NORTH CENTRAL INDIANA

CITY           SKY/WX    TMP DP  RH WIND       PRES   REMARKS
GOSHEN         PTCLDY    55  45  68 CALM      30.03S
LOGANSPORT +   CLEAR     50  45  81 S5        30.05S
PERU/GRISSOM   CLEAR     54  46  72 CALM      30.03S
ROCHESTER +    CLEAR     59  45  58 CALM      30.04F
SOUTH BEND     PTCLDY    57  45  64 SW6       30.03S
WARSAW +       CLEAR     52  45  76 CALM      30.04S

$$

INZ006>009-017-018-025>027-181000-
NORTHEAST INDIANA

CITY           SKY/WX    TMP DP  RH WIND       PRES   REMARKS
ANGOLA *+      PTCLDY    48  46  93 CALM      30.04R
AUBURN +       CLEAR     55  43  62 CALM      30.05R
FORT WAYNE     PTCLDY    52  45  77 SW5       30.04F
HUNTINGTON +   CLEAR     51  45  80 CALM      30.04S

$$

INZ028-029-035-036-043>045-051>053-181000-
WEST CENTRAL INDIANA

CITY           SKY/WX    TMP DP  RH WIND       PRES   REMARKS
CRAWFORDSVL +  CLEAR     49  43  79 CALM      30.04F
GREENCASTLE +  CLEAR     54  41  62 CALM      30.04F
LAFAYETTE      CLEAR     50  46  86 CALM      30.03F
TERRE HAUTE    CLEAR     50  48  93 CALM      30.03F

$$

INZ030>032-037>040-046>048-054>057-064-065-181000-
CENTRAL INDIANA

CITY           SKY/WX    TMP DP  RH WIND       PRES   REMARKS
CP ATTERBURY + CLEAR     46  45  93 CALM      30.05S
FISHERS *+     CLEAR     46  46 100 CALM      30.06R
FRANKFORT +    CLEAR     50  47  89 SE5       30.06S
GREENWOOD *+   CLEAR     52  43  71 CALM      30.05S
INDIANAPOLIS   CLEAR     54  45  71 CALM      30.03S
-EAGLE CREEK   CLEAR     52  48  86 CALM      30.04S
KOKOMO *+      CLEAR     52  45  76 CALM      30.04S
MARION +       CLEAR     50  45  81 CALM      30.05S
MT COMFORT *+  CLEAR     48  46  93 N3        30.06S
SHELBYVILLE    CLEAR     52  45  77 CALM      30.04F
ZIONSVILLE +   CLEAR     52  46  79 CALM      30.06S

$$

INZ033-034-041-042-049-050-058-059-181000-
EAST CENTRAL INDIANA

CITY           SKY/WX    TMP DP  RH WIND       PRES   REMARKS
MUNCIE         CLEAR     51  44  77 S3        30.06R

$$

INZ060-061-067>069-081>083-085>088-181000-
SOUTHWEST INDIANA

CITY           SKY/WX    TMP DP  RH WIND       PRES   REMARKS
EVANSVILLE     CLEAR     58  55  90 CALM      30.01S FOG
HUNTINGBURG *+ PTCLDY    55  52  88 N3        30.02S VSB 1
WASHINGTON +   CLEAR     55  51  87 CALM      30.01F FOG

$$

INZ062-063-066-070>080-084-089>092-181000-
SOUTH CENTRAL AND SOUTHEAST INDIANA

CITY           SKY/WX    TMP DP  RH WIND       PRES   REMARKS
BEDFORD +      CLEAR     52  48  87 CALM      30.03F
BLOOMINGTON    CLEAR     50  47  89 CALM      30.04S
MADISON *+     CLEAR     52  46  82 NE3       30.06S
NORTH VERNON + CLEAR     48  48 100 CALM      30.05S

$$




USA.gov is the U.S. government's official web portal to all federal, state and local government web resources and services.